QZS-3 (MICHIBIKI-3)     
1 42917U 17048A   19259.86776094 -.00000355  00000-0  00000-0 0  9990
2 42917   0.0495 198.1476 0002067 355.4433 241.3552  1.00269661  7539
H-2A R/B                
1 42918U 17048B   19259.51057697  .00000277  00000-0  37235-3 0  9999
2 42918  19.7245 149.0002 7223404   0.5515   0.0973  2.31608428 17548